sat.trackr.live / text

‹ back to catalog

STARLINK-3174

NORAD 51468 · 2022-010N

PAYLOAD ACTIVE UNKNOWN

§ Identity

Operator
Country
US
Launch date
2022-02-03
Launch site
AFETR
Launch vehicle
Mass (kg)
RCS (m²)

Purposes: comms

External: N2YO · Heavens-Above · Gunter

§ Orbital elements

Epoch: 2026-09-20T03:43:58.740672Z

Period
93.85 min
Inclination
53.1603°
Eccentricity
0.0001252
Mean motion
15.34389856 rev/d
Perigee alt
461.9 km
Apogee alt
463.6 km
Semi-major
6,840.9 km
B*
4.5126e-5
RAAN
116.9919°
Arg perigee
96.9152°
Mean anomaly
263.1993°
Rev number
25,599

§ Raw data

STARLINK-31741 51468U 22010N   26263.15554098  .00001148  00000+0  45126-4 0  99902 51468  53.1603 116.9919 0001252  96.9152 263.1993 15.34389856255997

JSON: /api/v1/satellites/51468 · /tle

For live sub-satellite position, see the globe view (requires WebGL).

§ Visibility from observer

Set your observer location to see the next 7 days of passes ≥ 10°. The values pass through the URL so the page stays shareable.

No JS? Fill the form by hand. The geolocation button needs JavaScript.